Regional Weather Roundup
Issued by NWS Mt. Holly, NJ

Home | Current Version | Previous Version | Text Only | Print | Product List | Glossary On
Versions: 1 2 3 4 5 6 7 8 9 10 11 12 13 14 15 16 17 18 19 20 21 22 23 24 25 26 27 28 29 30 31 32 33 34 35 36 37 38 39 40 41 42 43 44 45 46 47 48 49
000
ASUS41 KPHI 020812
RWRPHI

REGIONAL WEATHER ROUNDUP
NATIONAL WEATHER SERVICE MOUNT HOLLY NJ
400 AM EDT WED SEP 02 2015

NOTE:  "FAIR" INDICATES FEW OR NO CLOUDS BELOW 12,000 FEET WITH NO
SIGNIFICANT WEATHER AND/OR OBSTRUCTIONS TO VISIBILITY.

 * = STATION DOES NOT REPORT PRECIPITATION (E.G. RAIN, SNOW, ETC.)
        OR FOG.

NJZ015>026-020900-
SOUTHERN NEW JERSEY

CITY           SKY/WX    TMP DP  RH WIND       PRES   REMARKS
POMONA         FOG       68  67  96 CALM      30.02S VSB 1/4
WILDWOOD*      CLEAR     68  66  94 CALM      30.02F
MILLVILLE      FOG       68  67  96 CALM      30.02S VSB 1/4
WRIGHTSTOWN    FOG       68  68 100 NE2       30.01S VSB 1/2
MOUNT HOLLY    FOG       68  68 100 CALM      30.02F VSB<1/4
TRENTON        CLEAR     69  65  86 CALM      30.03S

$$
NJZ001>014-020900-
NORTHERN NEW JERSEY

CITY           SKY/WX    TMP DP  RH WIND       PRES   REMARKS
SUSSEX         CLEAR     60  58  92 CALM      30.05F FOG
ANDOVER*         N/A     62  61  96 CALM      30.05F
MORRISTOWN     FOG       59  55  88 CALM      30.04S VSB 1/4
NEWARK         CLEAR     74  66  76 CALM      30.02F
TETERBORO      CLEAR     70  64  81 CALM      30.02S
CALDWELL       CLEAR     66  62  87 CALM      30.04F
SOMERVILLE     CLEAR     64  61  90 NW3       30.02F FOG
ALLAIRE*       MOCLDY    68  61  77 CALM      30.03F
TOMS RIVER*    CLOUDY    68  66  94 CALM      30.03F VSB<1/4

$$
PAZ043-044-047-054-055-060>062-066>071-020900-
EASTERN PENNSYLVANIA

CITY           SKY/WX    TMP DP  RH WIND       PRES   REMARKS
PHILADELPHIA   CLEAR     74  70  87 CALM      30.03S
NORTH PHILA    CLEAR     71  65  81 CALM      30.04S HAZE
BLUE BELL        N/A     64  63  94 CALM      30.03S VSB 1/4
DOYLESTOWN     CLEAR     66  65  96 NE3       30.03F
QUAKERTOWN*    CLEAR     63  63 100 CALM      30.05F
POTTSTOWN      CLEAR     65  65 100 CALM      30.05F FOG
LANCASTER      CLEAR     67  65  93 CALM      30.04F FOG
COATESVILLE    CLEAR     64  64 100 W3        30.06S FOG
READING        CLEAR     68  65  90 CALM      30.03F FOG
ALLENTOWN      CLEAR     65  63  93 CALM      30.04F FOG
MOUNT POCONO   CLEAR     59  56  89 CALM      30.10F
HAZLETON       FOG       61  59  94 CALM      30.12F VSB 1/2
WILKES BARRE   CLEAR     65  61  87 CALM      30.06F

$$
DEZALL-MDZ008-012-015-019-020-020900-
DELAWARE AND EASTERN MARYLAND

CITY           SKY/WX    TMP DP  RH WIND       PRES   REMARKS
WILMINGTON     CLEAR     69  68  96 N3        30.03F FOG
DOVER          CLEAR     70  70 100 W3        30.00F
GEORGETOWN     PTCLDY    71  69  93 CALM      30.02F
PATUXENT       PTCLDY    73  69  87 CALM      30.01F
OCEAN CITY     PTCLDY    73  70  90 W6        30.01F
WALLOPS ISLAND PTCLDY    73  72  96 SW5       30.03S
CAMBRIDGE      PTCLDY    72  68  88 CALM      30.02S
SALISBURY      PTCLDY    70  69  97 CALM      30.02F

$$
PAZ001-021-NYZ056-072-MDZ011-DCZ001-020900-
OTHER NEARBY LOCATIONS

CITY           SKY/WX    TMP DP  RH WIND       PRES   REMARKS
HARRISBURG     MOCLDY    70  66  87 CALM      30.03F
STATE COLLEGE  PTCLDY    64  63  97 CALM      30.09S FOG
WILLIAMSPORT   CLOUDY    67  64  90 CALM      30.04F
BINGHAMTON     CLEAR     64  64 100 CALM      30.08S FOG
NEW YORK CITY  CLEAR     75  64  68 CALM      30.05F
BALTIMORE      MOCLDY    72  70  93 CALM      30.02S
WASHINGTON DC  MOCLDY    78  73  84 CALM      30.03S

$$


USA.gov is the U.S. government's official web portal to all federal, state and local government web resources and services.